| time (UTC) | temp F | wind direction | speed MPH | gust MPH | rain 1hr in | rain 24hr in | rain mn in | humidity % | barometer mb |
| 20260906151535 | 74 | 87 | 2.0 | 7.0 | 0.00 | 0.00 | 0.00 | 75 | 1021.4 |
| 20260906150047 | 73 | 41 | 2.0 | 7.0 | 0.00 | 0.00 | 0.00 | 77 | 1021.2 |
| 20260906144537 | 73 | 95 | 0.0 | 7.0 | 0.00 | 0.00 | 0.00 | 78 | 1021.1 |
| 20260906143035 | 72 | 90 | 2.0 | 6.0 | 0.00 | 0.00 | 0.00 | 78 | 1021.2 |
| 20260906141536 | 72 | 97 | 2.0 | 6.0 | 0.00 | 0.00 | 0.00 | 79 | 1021.4 |
| 20260906140024 | 71 | 93 | 1.0 | 4.0 | 0.00 | 0.00 | 0.00 | 81 | 1021.4 |
| 20260906134521 | 70 | 97 | 1.0 | 4.0 | 0.00 | 0.00 | 0.00 | 82 | 1021.5 |
| 20260906133017 | 69 | 92 | 3.0 | 6.0 | 0.00 | 0.00 | 0.00 | 86 | 1021.3 |
| 20260906131524 | 67 | 72 | 1.0 | 4.0 | 0.00 | 0.00 | 0.00 | 91 | 1021.3 |
| 20260906130015 | 66 | 56 | 1.0 | 3.0 | 0.00 | 0.00 | 0.00 | 92 | 1021.2 |
| 20260906124508 | 65 | 56 | 2.0 | 4.0 | 0.00 | 0.01 | 0.00 | 93 | 1021.0 |
| 20260906123004 | 64 | 56 | 0.0 | 3.0 | 0.00 | 0.01 | 0.00 | 94 | 1020.8 |
| 20260906121502 | 64 | 57 | 0.0 | 0.0 | 0.00 | 0.01 | 0.00 | 94 | 1021.0 |
| 20260906120105 | 63 | 57 | 0.0 | 0.0 | 0.00 | 0.01 | 0.00 | 94 | 1020.7 |
| 20260906114557 | 62 | 57 | 0.0 | 0.0 | 0.00 | 0.02 | 0.00 | 94 | 1020.5 |
| 20260906113101 | 62 | 57 | 0.0 | 0.0 | 0.00 | 0.02 | 0.00 | 94 | 1020.1 |
| 20260906111554 | 61 | 57 | 0.0 | 0.0 | 0.00 | 0.02 | 0.00 | 93 | 1019.8 |
| 20260906110053 | 61 | 57 | 0.0 | 0.0 | 0.00 | 0.02 | 0.00 | 93 | 1019.7 |
| 20260906104613 | 61 | 58 | 0.0 | 0.0 | 0.00 | 0.02 | 0.00 | 93 | 1019.7 |
| 20260906103052 | 61 | 58 | 0.0 | 0.0 | 0.00 | 0.02 | 0.00 | 93 | 1019.6 |
| 20260906101552 | 61 | 57 | 0.0 | 0.0 | 0.00 | 0.02 | 0.00 | 93 | 1019.9 |
| 20260906100052 | 61 | 57 | 0.0 | 0.0 | 0.00 | 0.02 | 0.00 | 93 | 1019.9 |
| 20260906094622 | 61 | 58 | 0.0 | 0.0 | 0.00 | 0.02 | 0.00 | 92 | 1019.8 |
| 20260906093101 | 61 | 58 | 0.0 | 0.0 | 0.00 | 0.02 | 0.00 | 92 | 1019.5 |
| 20260906091548 | 61 | 58 | 0.0 | 0.0 | 0.00 | 0.02 | 0.00 | 92 | 1019.5 |
| 20260906090047 | 61 | 58 | 0.0 | 0.0 | 0.00 | 0.02 | 0.00 | 92 | 1019.6 |
| 20260906084546 | 61 | 62 | 0.0 | 0.0 | 0.00 | 0.02 | 0.00 | 91 | 1019.5 |
| 20260906083045 | 62 | 62 | 0.0 | 0.0 | 0.00 | 0.02 | 0.00 | 91 | 1019.3 |
| 20260906081553 | 62 | 62 | 0.0 | 0.0 | 0.00 | 0.02 | 0.00 | 91 | 1019.2 |
| 20260906080051 | 62 | 62 | 0.0 | 0.0 | 0.00 | 0.02 | 0.00 | 91 | 1019.1 |
| 20260906074544 | 62 | 62 | 0.0 | 0.0 | 0.00 | 0.02 | 0.00 | 91 | 1019.4 |
| 20260906073042 | 62 | 68 | 0.0 | 0.0 | 0.00 | 0.02 | 0.00 | 91 | 1019.4 |
| 20260906071541 | 62 | 77 | 0.0 | 0.0 | 0.00 | 0.02 | 0.00 | 91 | 1019.2 |
| 20260906070040 | 61 | 74 | 0.0 | 0.0 | 0.00 | 0.02 | 0.00 | 91 | 1019.2 |
| 20260906064539 | 61 | 79 | 0.0 | 0.0 | 0.00 | 0.02 | 0.00 | 90 | 1019.2 |
| 20260906063038 | 61 | 81 | 0.0 | 0.0 | 0.00 | 0.02 | 0.00 | 89 | 1019.0 |
| 20260906061539 | 62 | 65 | 0.0 | 0.0 | 0.00 | 0.02 | 0.00 | 89 | 1019.0 |
| 20260906060034 | 62 | 64 | 0.0 | 0.0 | 0.00 | 0.02 | 0.00 | 89 | 1018.7 |
| 20260906054534 | 62 | 64 | 0.0 | 0.0 | 0.00 | 0.02 | 0.00 | 90 | 1018.7 |
| 20260906053030 | 62 | 64 | 0.0 | 0.0 | 0.00 | 0.02 | 0.00 | 92 | 1018.5 |
| 20260906051529 | 62 | 64 | 0.0 | 0.0 | 0.00 | 0.02 | 0.00 | 92 | 1018.4 |
| 20260906050027 | 62 | 64 | 0.0 | 2.0 | 0.00 | 0.02 | 0.00 | 92 | 1018.3 |
| 20260906044530 | 62 | 64 | 0.0 | 0.0 | 0.00 | 0.02 | 0.02 | 91 | 1018.3 |
| 20260906043024 | 62 | 63 | 0.0 | 0.0 | 0.00 | 0.02 | 0.02 | 91 | 1018.3 |
| 20260906041522 | 63 | 63 | 0.0 | 0.0 | 0.00 | 0.02 | 0.02 | 91 | 1018.1 |
| 20260906040025 | 63 | 63 | 0.0 | 0.0 | 0.00 | 0.02 | 0.02 | 91 | 1018.1 |
| 20260906034519 | 63 | 62 | 0.0 | 0.0 | 0.00 | 0.02 | 0.02 | 90 | 1018.1 |
| 20260906033017 | 64 | 62 | 0.0 | 0.0 | 0.00 | 0.02 | 0.02 | 90 | 1017.8 |
| 20260906031526 | 64 | 63 | 0.0 | 0.0 | 0.00 | 0.02 | 0.02 | 89 | 1017.9 |
| 20260906030013 | 65 | 63 | 0.0 | 0.0 | 0.00 | 0.02 | 0.02 | 88 | 1017.8 |
| 20260906024510 | 66 | 63 | 0.0 | 0.0 | 0.00 | 0.02 | 0.02 | 87 | 1017.7 |
| 20260906023005 | 67 | 62 | 0.0 | 0.0 | 0.00 | 0.02 | 0.02 | 84 | 1017.8 |
| 20260906021505 | 69 | 62 | 0.0 | 0.0 | 0.00 | 0.02 | 0.02 | 83 | 1017.7 |
| 20260906020004 | 69 | 62 | 0.0 | 1.0 | 0.00 | 0.02 | 0.02 | 82 | 1017.7 |
| 20260906014504 | 70 | 62 | 0.0 | 0.0 | 0.00 | 0.02 | 0.02 | 82 | 1017.7 |
| 20260906013002 | 70 | 61 | 0.0 | 0.0 | 0.00 | 0.02 | 0.02 | 82 | 1017.5 |
| 20260906011506 | 71 | 60 | 0.0 | 2.0 | 0.00 | 0.02 | 0.02 | 82 | 1017.6 |
| 20260906010001 | 71 | 60 | 1.0 | 5.0 | 0.00 | 0.02 | 0.02 | 81 | 1017.5 |
| 20260906004604 | 71 | 45 | 3.0 | 5.0 | 0.00 | 0.02 | 0.02 | 80 | 1017.4 |
| 20260906003102 | 72 | 56 | 2.0 | 6.0 | 0.00 | 0.02 | 0.02 | 78 | 1017.3 |
| 20260906001612 | 73 | 56 | 1.0 | 5.0 | 0.00 | 0.02 | 0.02 | 77 | 1017.4 |
| 20260906000100 | 73 | 78 | 1.0 | 8.0 | 0.00 | 0.02 | 0.02 | 76 | 1017.3 |
| 20260905234600 | 73 | 37 | 2.0 | 10.0 | 0.00 | 0.02 | 0.02 | 74 | 1017.4 |
| 20260905233110 | 74 | 58 | 4.0 | 11.0 | 0.00 | 0.02 | 0.02 | 74 | 1017.4 |
| 20260905231558 | 74 | 37 | 6.0 | 11.0 | 0.00 | 0.02 | 0.02 | 72 | 1017.5 |
| 20260905230058 | 74 | 359 | 5.0 | 14.0 | 0.00 | 0.02 | 0.02 | 72 | 1017.7 |
| 20260905224606 | 75 | 10 | 2.0 | 11.0 | 0.00 | 0.02 | 0.02 | 72 | 1017.5 |
| 20260905223057 | 75 | 11 | 5.0 | 10.0 | 0.00 | 0.02 | 0.02 | 70 | 1017.4 |
| 20260905221600 | 76 | 11 | 4.0 | 9.0 | 0.00 | 0.02 | 0.02 | 69 | 1017.2 |
| 20260905214554 | 75 | 20 | 6.0 | 13.0 | 0.00 | 0.02 | 0.02 | 69 | 1017.3 |
| 20260905213100 | 76 | 12 | 5.0 | 12.0 | 0.00 | 0.02 | 0.02 | 69 | 1017.3 |
| 20260905211554 | 75 | 37 | 5.0 | 10.0 | 0.00 | 0.02 | 0.02 | 72 | 1017.4 |
| 20260905210107 | 75 | 349 | 4.0 | 9.0 | 0.00 | 0.02 | 0.02 | 72 | 1017.4 |
| 20260905204552 | 75 | 81 | 3.0 | 11.0 | 0.00 | 0.02 | 0.02 | 72 | 1017.3 |
| 20260905203054 | 75 | 359 | 5.0 | 11.0 | 0.00 | 0.02 | 0.02 | 74 | 1017.2 |
| 20260905201557 | 76 | 87 | 5.0 | 11.0 | 0.00 | 0.02 | 0.02 | 74 | 1017.1 |
| 20260905200100 | 75 | 4 | 4.0 | 11.0 | 0.00 | 0.02 | 0.02 | 77 | 1017.2 |
| 20260905194547 | 75 | 16 | 6.0 | 12.0 | 0.00 | 0.02 | 0.02 | 77 | 1017.3 |
| 20260905193045 | 75 | 35 | 5.0 | 11.0 | 0.00 | 0.02 | 0.02 | 79 | 1017.3 |
| 20260905191544 | 75 | 11 | 5.0 | 10.0 | 0.00 | 0.02 | 0.02 | 79 | 1017.2 |
| 20260905190042 | 74 | 72 | 5.0 | 10.0 | 0.00 | 0.02 | 0.02 | 81 | 1017.3 |
| 20260905184540 | 74 | 25 | 4.0 | 10.0 | 0.00 | 0.02 | 0.02 | 83 | 1017.4 |
| 20260905183038 | 73 | 58 | 2.0 | 8.0 | 0.00 | 0.02 | 0.02 | 83 | 1017.4 |
| 20260905181538 | 73 | 50 | 6.0 | 12.0 | 0.00 | 0.02 | 0.02 | 83 | 1017.3 |
| 20260905180037 | 73 | 44 | 2.0 | 9.0 | 0.00 | 0.02 | 0.02 | 84 | 1017.3 |
| 20260905174533 | 72 | 32 | 5.0 | 12.0 | 0.00 | 0.02 | 0.02 | 84 | 1017.4 |
| 20260905173037 | 72 | 56 | 3.0 | 8.0 | 0.00 | 0.02 | 0.02 | 85 | 1017.4 |
| 20260905171546 | 71 | 49 | 3.0 | 10.0 | 0.00 | 0.02 | 0.02 | 87 | 1017.4 |
| 20260905170033 | 71 | 69 | 6.0 | 10.0 | 0.00 | 0.02 | 0.02 | 87 | 1017.7 |
| 20260905164532 | 71 | 39 | 5.0 | 12.0 | 0.00 | 0.02 | 0.02 | 87 | 1017.7 |
| 20260905163029 | 71 | 21 | 6.0 | 11.0 | 0.00 | 0.02 | 0.02 | 88 | 1017.4 |
| 20260905161537 | 71 | 93 | 4.0 | 9.0 | 0.00 | 0.02 | 0.02 | 89 | 1017.5 |
| 20260905160041 | 71 | 14 | 2.0 | 9.0 | 0.00 | 0.02 | 0.02 | 90 | 1017.4 |
| 20260905154545 | 71 | 15 | 6.0 | 11.0 | 0.00 | 0.02 | 0.02 | 90 | 1017.4 |
| 20260905153028 | 70 | 49 | 3.0 | 10.0 | 0.00 | 0.02 | 0.02 | 92 | 1017.2 |